Location: Morosaglia
(42.4360°N, 9.3069°E)
Time: 01:55:36
(UTC+00:00)

MOZ.5/SAFIR/RUBIN 5/SL-8 - Pass Details

Date: 07 June 2020
Orbit: 678 x 705 km, 98.1° (Epoch: 05 July)

Event Time Altitude Azimuth Distance (km) Brightness Sun altitude
Exits shadow 00:29:16 34° 125° (SE) 1,121 4.7 -22.9°
Maximum altitude 00:30:54 50° 72° (ENE) 867 4.4 -22.9°
Drops below altitude 10° 00:35:24 10° 358° (N) 2,132 7.3 -22.6°
Sets 00:37:42 0° 353° (N) 3,055 8.2 -22.5°
